Stations météo

réclame
Mon MeteoGroup
Guernsey, Grande-Bretagne (3894): Température de l'air & dewpoint: 17.07.2018 08:00:00 - 23.07.2018 08:00:00 (BST)Guernsey, Grande-Bretagne (3894): Température de l'air -20cm & Température de l'air -100cm: 17.07.2018 08:00:00 - 23.07.2018 08:00:00 (BST)Guernsey, Grande-Bretagne (3894): Vitesse du vent: 17.07.2018 08:00:00 - 23.07.2018 08:00:00 (BST)Guernsey, Grande-Bretagne (3894): Direction du vent: 17.07.2018 08:00:00 - 23.07.2018 08:00:00 (BST)Guernsey, Grande-Bretagne (3894): reduced air pressure: 17.07.2018 08:00:00 - 23.07.2018 08:00:00 (BST)Guernsey, Grande-Bretagne (3894): visibility: 17.07.2018 08:00:00 - 23.07.2018 08:00:00 (BST)Guernsey, Grande-Bretagne (3894): Quantités de précipitations: 17.07.2018 08:00:00 - 23.07.2018 08:00:00 (BST)
Date & Time tt [°C] td [°C] tt -20cm [°C] tt -100cm [°C] ff [km/h] ff [knt] dd ppp [hPa] vv [km] rr [mm]
23.07.2018 08:00:00 17,2 16,9 - - 15 8 W 1018,9 10 -
23.07.2018 07:00:00 17,4 17,4 - - 13 7 W 1018,7 4,5 0,0
23.07.2018 06:00:00 17,2 17,2 - - 11 6 WSW 1018,4 0,2 -
23.07.2018 05:00:00 17,3 17,3 - - 11 6 W 1018,5 0,3 -
23.07.2018 04:00:00 17,2 17,2 - - 11 6 WSW 1018,5 0,7 -
23.07.2018 03:00:00 16,9 16,9 - - 11 6 WSW 1018,6 0,8 -
23.07.2018 02:00:00 16,6 16,6 - - 9 5 WSW 1018,8 4,5 -
23.07.2018 01:00:00 16,4 16,2 - - 9 5 WSW 1019,1 10 0,0
23.07.2018 00:00:00 16,1 15,6 - - 9 5 WSW 1019,1 10 -
22.07.2018 23:00:00 16,9 16,2 - - 11 6 W 1018,9 10 -
22.07.2018 22:00:00 17,2 16,4 - - 11 6 W 1018,8 10 -
22.07.2018 21:00:00 18,0 16,3 - - 13 7 W 1018,2 10 -
22.07.2018 20:00:00 19,0 15,9 - - 18 10 W 1017,7 10 -
22.07.2018 19:00:00 19,9 15,7 - - 16 9 WNW 1017,7 10 0,0
22.07.2018 18:00:00 20,3 15,8 - - 16 9 W 1018,0 10 -
22.07.2018 17:00:00 21,3 14,8 - - 15 8 W 1017,9 10 -
22.07.2018 16:00:00 21,8 11,9 - - 15 8 W 1018,0 10 -
22.07.2018 15:00:00 22,7 12,4 - - 13 7 WNW 1018,2 10 -
22.07.2018 14:00:00 21,8 15,1 - - 11 6 WNW 1018,2 10 -
22.07.2018 13:00:00 21,8 15,6 - - 11 6 W 1018,2 10 0,0
22.07.2018 12:00:00 22,1 16,4 - - 11 6 WSW 1018,1 10 -
22.07.2018 11:00:00 21,3 16,7 - - 9 5 W 1017,9 10 -
22.07.2018 10:00:00 20,3 16,3 19,9 17,7 9 5 W 1017,8 10 -
22.07.2018 09:00:00 19,3 16,4 - - 9 5 W 1017,7 10 -
22.07.2018 08:00:00 18,1 15,2 - - 9 5 W 1017,5 10 -
22.07.2018 07:00:00 16,4 16,3 - - 8 4 WSW 1017,4 10 0,0
22.07.2018 06:00:00 14,6 14,4 - - 9 5 WSW 1017,4 10 -
22.07.2018 05:00:00 14,8 14,4 - - 8 4 W 1017,2 10 -
22.07.2018 04:00:00 14,9 14,2 - - 5 3 WNW 1016,8 10 -
22.07.2018 03:00:00 15,1 14,8 - - 2 1 - 1017,0 10 -
22.07.2018 02:00:00 15,4 14,5 - - 5 3 NNW 1017,1 10 -
22.07.2018 01:00:00 15,3 13,3 - - 8 4 N 1017,4 10 0,0
22.07.2018 00:00:00 15,0 14,1 - - 8 4 N 1017,2 10 -
21.07.2018 23:00:00 15,4 12,2 - - 5 3 N 1017,0 10 -
21.07.2018 22:00:00 15,7 13,0 - - 5 3 N 1016,9 10 -
21.07.2018 21:00:00 17,7 12,8 - - 5 3 NNE 1016,1 10 -
21.07.2018 20:00:00 19,4 12,5 - - 8 4 NE 1015,8 10 -
21.07.2018 19:00:00 20,2 11,9 - - 11 6 ENE 1015,4 10 0,0
21.07.2018 18:00:00 20,8 13,2 - - 13 7 ENE 1015,6 10 -
21.07.2018 17:00:00 20,9 14,7 - - 8 4 - 1015,9 10 -
21.07.2018 16:00:00 20,1 15,1 - - 13 7 NW 1015,9 10 -
21.07.2018 15:00:00 19,7 16,0 - - 9 5 N 1015,5 10 -
21.07.2018 14:00:00 21,5 13,6 - - 8 4 - 1015,2 10 -
21.07.2018 13:00:00 20,5 14,1 - - 5 3 - 1015,2 10 0,0
21.07.2018 12:00:00 20,6 14,8 - - 11 6 SW 1015,0 10 -
21.07.2018 11:00:00 19,6 15,2 - - 9 5 SW 1014,8 10 -
21.07.2018 10:00:00 18,4 16,1 19,7 17,7 9 5 SW 1014,6 10 -
21.07.2018 09:00:00 16,9 16,4 - - 5 3 S 1014,5 8 -
21.07.2018 08:00:00 16,0 16,0 - - 8 4 SE 1014,4 0,5 -
21.07.2018 07:00:00 15,3 14,9 - - 9 5 SSE 1013,9 10 -
21.07.2018 06:00:00 14,9 14,8 - - 5 3 E 1013,8 10 -
21.07.2018 05:00:00 16,0 16,0 - - 5 3 W 1013,6 1,5 -
21.07.2018 04:00:00 16,0 15,9 - - 8 4 W 1013,4 2,5 -
21.07.2018 03:00:00 16,1 16,0 - - 9 5 W 1013,9 8 -
21.07.2018 02:00:00 16,2 15,8 - - 11 6 W 1014,5 10 -
21.07.2018 01:00:00 16,3 15,6 - - 15 8 W 1014,3 10 -
21.07.2018 00:00:00 16,2 15,3 - - 18 10 W 1014,3 10 -
20.07.2018 23:00:00 16,2 14,9 - - 21 11 W 1014,5 10 -
20.07.2018 22:00:00 16,2 14,6 - - 22 12 W 1014,5 10 -
20.07.2018 21:00:00 16,1 14,4 - - 21 11 W 1014,5 10 -
20.07.2018 20:00:00 17,5 14,1 - - 21 11 W 1014,6 10 -
20.07.2018 19:00:00 18,2 13,5 - - 29 16 W 1014,6 10 0,0
20.07.2018 18:00:00 19,1 13,4 - - 26 14 W 1014,8 10 -
20.07.2018 17:00:00 18,8 13,3 - - 22 12 W 1015,0 10 -
20.07.2018 16:00:00 19,5 11,8 - - 28 15 W 1015,3 10 -
20.07.2018 15:00:00 19,3 13,6 - - 31 17 W 1015,5 10 -
20.07.2018 14:00:00 19,9 14,2 - - 29 16 WNW 1015,6 10 -
20.07.2018 13:00:00 19,4 14,2 - - 31 17 WNW 1015,7 10 0,0
20.07.2018 12:00:00 18,6 12,7 - - 22 12 NW 1016,1 10 -
20.07.2018 11:00:00 18,5 12,1 - - 24 13 WNW 1016,1 10 -
20.07.2018 10:00:00 18,8 11,5 19,7 17,5 18 10 NW 1016,0 10 -
20.07.2018 09:00:00 18,0 13,1 - - 21 11 NW 1015,7 10 -
20.07.2018 08:00:00 16,4 13,3 - - 18 10 NW 1015,6 10 -
20.07.2018 07:00:00 15,8 13,4 - - 18 10 NW 1015,4 10 0,0
20.07.2018 06:00:00 15,0 13,1 - - 16 9 NW 1015,6 10 -
20.07.2018 05:00:00 15,3 13,3 - - 16 9 NNW 1015,8 10 -
20.07.2018 04:00:00 15,1 13,4 - - 15 8 NW 1016,0 10 -
20.07.2018 03:00:00 15,1 13,3 - - 11 6 NW 1016,3 10 -
20.07.2018 02:00:00 15,5 12,9 - - 11 6 NNW 1016,6 10 -
20.07.2018 01:00:00 16,2 14,5 - - 11 6 NW 1017,0 10 0,0
20.07.2018 00:00:00 16,2 14,8 - - 13 7 WNW 1017,3 10 -
19.07.2018 23:00:00 16,3 14,6 - - 13 7 NW 1017,4 10 -
19.07.2018 22:00:00 16,6 14,5 - - 16 9 WNW 1017,5 10 -
19.07.2018 21:00:00 17,3 13,8 - - 18 10 NW 1017,4 10 -
19.07.2018 20:00:00 18,4 14,4 - - 16 9 NW 1017,5 10 -
19.07.2018 19:00:00 19,0 11,4 - - 16 9 NNW 1017,6 10 0,0
19.07.2018 18:00:00 19,7 11,8 - - 18 10 NNW 1017,4 10 -
19.07.2018 17:00:00 19,1 12,3 - - 16 9 NNW 1017,8 10 -
19.07.2018 16:00:00 19,7 13,3 - - 16 9 NNW 1018,1 10 -
19.07.2018 15:00:00 20,3 14,2 - - 16 9 N 1018,4 10 -
19.07.2018 14:00:00 20,0 14,2 - - 21 11 N 1018,3 10 -
19.07.2018 13:00:00 20,4 14,0 - - 16 9 N 1018,8 10 0,0
19.07.2018 12:00:00 20,4 13,6 - - 16 9 N 1018,5 10 -
19.07.2018 11:00:00 20,0 13,5 - - 16 9 N 1018,3 10 -
19.07.2018 10:00:00 18,2 13,4 19,7 17,5 15 8 N 1018,7 10 -
19.07.2018 09:00:00 18,5 13,5 - - 16 9 N 1018,7 10 -
19.07.2018 08:00:00 16,3 14,4 - - 15 8 N 1019,1 10 -
19.07.2018 07:00:00 15,3 14,6 - - 11 6 N 1019,1 10 0,0
19.07.2018 06:00:00 14,6 14,0 - - 9 5 N 1018,8 10 -
19.07.2018 05:00:00 14,5 13,2 - - 9 5 N 1019,2 10 -
19.07.2018 04:00:00 14,7 13,1 - - 8 4 N 1019,2 10 -
19.07.2018 03:00:00 13,9 11,6 - - 5 3 N 1019,3 10 -
19.07.2018 02:00:00 14,5 10,9 - - 8 4 N 1019,7 10 -
19.07.2018 01:00:00 14,6 11,8 - - 5 3 N 1020,1 10 0,0
19.07.2018 00:00:00 14,4 12,8 - - 5 3 N 1020,1 10 -
18.07.2018 23:00:00 14,0 12,2 - - 9 5 N 1019,8 10 -
18.07.2018 22:00:00 14,7 12,5 - - 9 5 N 1019,4 10 -
18.07.2018 21:00:00 16,1 12,2 - - 11 6 NNE 1019,1 10 -
18.07.2018 20:00:00 17,7 11,8 - - 11 6 N 1018,8 10 -
18.07.2018 19:00:00 19,4 12,0 - - 11 6 N 1018,8 10 0,0
18.07.2018 18:00:00 19,7 10,3 - - 13 7 N 1018,9 10 -
18.07.2018 17:00:00 19,9 10,8 - - 13 7 N 1019,0 10 -
18.07.2018 16:00:00 20,8 10,1 - - 9 5 N 1019,1 10 -
18.07.2018 15:00:00 19,9 11,2 - - 13 7 NNW 1018,9 10 -
18.07.2018 14:00:00 20,7 12,5 - - 11 6 NNW 1019,1 10 -
18.07.2018 13:00:00 19,0 12,0 - - 9 5 NW 1019,4 10 0,0
18.07.2018 12:00:00 20,7 12,5 - - 5 3 - 1019,3 10 -
18.07.2018 11:00:00 19,2 12,8 - - 8 4 NW 1019,4 10 -
18.07.2018 10:00:00 18,6 12,5 19,7 17,5 8 4 W 1019,4 10 -
18.07.2018 09:00:00 17,9 13,1 - - 8 4 WNW 1019,3 10 -
18.07.2018 08:00:00 15,9 13,8 - - 9 5 W 1019,2 10 -
18.07.2018 07:00:00 14,5 14,0 - - 8 4 WSW 1019,1 10 0,0
18.07.2018 06:00:00 13,8 13,4 - - 11 6 WSW 1018,7 10 -
18.07.2018 05:00:00 13,5 13,1 - - 9 5 SW 1018,7 10 -
18.07.2018 04:00:00 13,3 12,9 - - 8 4 SW 1018,8 10 -
18.07.2018 03:00:00 13,4 12,7 - - 9 5 WSW 1018,9 10 -
18.07.2018 02:00:00 13,7 12,7 - - 8 4 WSW 1019,0 10 -
18.07.2018 01:00:00 14,6 12,9 - - 8 4 WSW 1019,2 10 0,0
18.07.2018 00:00:00 16,0 13,0 - - 11 6 WSW 1019,5 10 -
17.07.2018 23:00:00 15,9 14,1 - - 9 5 WSW 1019,3 10 -
17.07.2018 22:00:00 16,0 13,8 - - 9 5 WSW 1019,2 10 -
17.07.2018 21:00:00 16,4 13,0 - - 9 5 WSW 1018,9 10 -
17.07.2018 20:00:00 16,8 13,0 - - 9 5 SW 1018,6 10 -
17.07.2018 19:00:00 17,7 12,5 - - 11 6 SW 1018,5 10 -
17.07.2018 18:00:00 18,5 11,5 - - 11 6 SW 1018,6 10 -
17.07.2018 17:00:00 19,8 11,2 - - 15 8 W 1018,8 10 -
17.07.2018 16:00:00 20,3 12,2 - - 18 10 SW 1018,9 10 -
17.07.2018 15:00:00 19,9 11,6 - - 18 10 WSW 1019,2 10 -
17.07.2018 14:00:00 19,2 12,1 - - 22 12 W 1019,0 10 -
17.07.2018 13:00:00 19,5 13,7 - - 18 10 SW 1019,5 10 -
17.07.2018 12:00:00 17,7 13,7 - - 21 11 SW 1019,4 10 -
17.07.2018 11:00:00 18,3 11,4 - - 9 5 WNW 1019,1 10 -
17.07.2018 10:00:00 15,5 13,2 19,5 17,5 18 10 WNW 1018,9 10 -
17.07.2018 09:00:00 18,1 13,9 - - 18 10 W 1018,4 10 -
17.07.2018 08:00:00 16,0 14,7 - - 15 8 WSW 1018,3 10 -

tt = Température de l'air
td = dewpoint
tt -20cm = Température de l'air -20cm
tt -100cm = Température de l'air -100cm
ff = Vitesse du vent
dd = Direction du vent
ppp = reduced air pressure
vv = visibility
rr = Quantités de précipitations

stations d'obs. à proximité